Regional Weather Roundup
Issued by NWS

Home | Current Version | Previous Version | Text Only | Print | Product List | Glossary Off
Versions: 1 2 3 4 5 6 7 8 9 10 11 12 13 14 15 16 17 18 19 20 21 22 23 24 25 26 27 28 29 30 31 32 33 34 35 36 37 38 39 40 41 42 43 44 45 46 47 48 49 50

335
ASUS43 KDMX 211401
RWRIA

WEATHER ROUNDUP FOR IOWA
NATIONAL WEATHER SERVICE DES MOINES IA
900 AM CDT SAT OCT 21 2017

NOTE: "FAIR" INDICATES FEW OR NO CLOUDS BELOW 12,000 FEET WITH NO
SIGNIFICANT WEATHER AND/OR OBSTRUCTIONS TO VISIBILITY.

* - THESE STATIONS ARE NOT NWS STATIONS...THUS NOT UNDER NWS
QUALITY CONTROL.  THEY ALSO DO NOT REPORT WEATHER SUCH
AS PRECIPITATION OR FOG.

IAZ001>003-012>014-020>022-031>034-043>046-211500-
   NORTHWEST IOWA

CITY           SKY/WX    TMP DP  RH WIND       PRES   REMARKS
CHEROKEE *     CLOUDY    65  62  90 S17G25    29.64R
DENISON *      CLOUDY    64  61  88 S23G32    29.66S
LE MARS *      CLOUDY    68  63  83 S21       29.57S
ORANGE CITY *  CLOUDY    68  63  83 S13G23    29.59F
SHELDON *      CLOUDY    64  63  94 S14G22    29.59S
SIOUX CITY     CLOUDY    67  63  87 SE9       29.58R
SPENCER        CLOUDY    63  61  93 S18G25    29.65R
STORM LAKE *   CLOUDY    63  61  94 S16G26    29.66R
$$

IAZ055>058-069>071-079>083-090>094-211500-
   SOUTHWEST IOWA

CITY           SKY/WX    TMP DP  RH WIND       PRES   REMARKS
ATLANTIC *     CLOUDY    66  61  82 S17G26    29.69F
AUDUBON *      CLOUDY    64  61  88 S14G24    29.72R
CLARINDA *     CLOUDY    66  61  82 S16G26    29.75R
COUNCIL BLFS * CLOUDY    68  64  88 S22G30    29.66S
CRESTON *      CLOUDY    64  59  82 S18G26    29.78R
HARLAN  *      CLOUDY    66  63  88 S15G24    29.71R
LAMONI         LGT RAIN  64  57  78 S16G24    29.81R
RED OAK *      CLOUDY    68  61  77 S18G29    29.70R
SHENANDOAH *   CLOUDY    68  61  77 S22G30    29.70R
$$

IAZ047>049-059>061-072>074-084-211500-
   CENTRAL IOWA

CITY           SKY/WX    TMP DP  RH WIND       PRES   REMARKS
AMES           CLOUDY    65  60  84 S20G28    29.77R
ANKENY *       CLOUDY    64  57  77 S17       29.79S
BOONE *        CLOUDY    63  59  88 S14G24    29.75S
CHARITON *     PTSUNNY   64  57  77 S17G26    29.82R
DES MOINES     CLOUDY    66  58  75 S18G24    29.79R
GRINNELL*      CLOUDY    61  55  80 S14       29.86R
KNOXVILLE *    CLOUDY    66  55  68 S20G28    29.81S
MARSHALLTOWN   CLOUDY    64  57  78 S17G23    29.81R
NEWTON *       CLOUDY    64  57  77 S20G28    29.83S
PELLA *        PTSUNNY   66  56  70 S15G26    29.86R
PERRY *        CLOUDY    64  60  86 S17G23    29.73S
$$

IAZ004>006-015-016-023>025-035-036-211500-
   NORTH CENTRAL IOWA

CITY           SKY/WX    TMP DP  RH WIND       PRES   REMARKS
ALGONA *       DRIZZLE   61  61 100 S18G25    29.69R
CLARION *      CLOUDY    61  61 100 SE15      29.75F FOG
ESTHERVILLE    LGT RAIN  60  60 100 S17G25    29.67R
FORT DODGE *   CLOUDY    62  59  90 SE13      29.72F
MASON CITY     CLOUDY    60  57  89 S16       29.78F
FOREST CITY *  LGT RAIN  61  59  94 S20       29.73F
WEBSTER CITY * CLOUDY    63  59  88 S13G22    29.73F
IOWA FALLS *   CLOUDY    64  58  80 S15       29.80S
$$

IAZ007>011-017>019-026>030-037>042-050>054-066-211500-
   NORTHEAST IOWA

CITY           SKY/WX    TMP DP  RH WIND       PRES   REMARKS
CEDAR RAPIDS   SUNNY     62  53  72 S15       29.89R
CHARLES CITY * CLOUDY    61  57  88 S15G21    29.82S
CLINTON *      MOSUNNY   65  54  67 S14       29.97R
DECORAH *      CLOUDY    61  54  77 S12G22    29.85R
DUBUQUE        SUNNY     63  52  67 S24       29.93R
MONTICELLO *   SUNNY     64  52  63 S15G21    29.91R
OELWEIN *      CLOUDY    63  55  77 S15G23    29.87R
WATERLOO       CLOUDY    61  55  81 S15       29.83R
$$

IAZ064-065-067-068-078-211500-
   EAST CENTRAL IOWA

CITY           SKY/WX    TMP DP  RH WIND       PRES   REMARKS
DAVENPORT      MOSUNNY   65  52  62 S18G24    29.97S
IOWA CITY      SUNNY     64  53  67 S12       29.93R
MUSCATINE *    SUNNY     64  52  63 S14       29.94R
QUAD CITIES    MOSUNNY   65  52  62 S14G22    29.95S
$$

IAZ062-063-075>077-085>089-095>099-211500-
   SOUTHEAST IOWA

CITY           SKY/WX    TMP DP  RH WIND       PRES   REMARKS
BURLINGTON     SUNNY     63  54  72 S15       29.95R
FAIRFIELD *    MOSUNNY   64  54  68 S21G28    29.90S
FORT MADISON * SUNNY     63  55  77 S8        29.96S
KEOKUK *       MOSUNNY   66  55  68 S16G24    29.94S
OSKALOOSA *    CLOUDY    63  55  76 S20       29.88R
OTTUMWA        PTSUNNY   64  55  72 S18G24    29.88R
WASHINGTON *   SUNNY     66  54  63 S20G26    29.92R
$$

ABBREVIATIONS USED IN REMARKS
   TC - TEMPERATURES IN CELSIUS
  WCI - WIND CHILL INDEX
   HX - HEAT INDEX
  VSB - VISIBILITY
$$





USA.gov is the U.S. government's official web portal to all federal, state and local government web resources and services.